User: anonymous
Location: Montr�al
(45.5000°N, 73.5830°W)
Time: 01:30:39
(UTC-04:00)
Language:

Cosmos 1151 Rocket - Orbit

View from above orbital plane
View from above orbital plane
View from above satellite
View from above satellite

Ground track
Ground track

The orbit data is extracted from the following two-line orbital elements,

1 11672U 80005B   14259.66920591  .00000417  00000-0  43414-4 0  1151
2 11672 082.5153 307.1911 0017904 055.3411 070.9946 14.87236385874051
Epoch (UTC): 16 September 2014 16:03:39
Eccentricity: 0.0017904
inclination: 82.5153°
perigee height: 594 km
apogee height: 619 km
right ascension of ascending node: 307.1911°
argument of perigee: 55.3411°
revolutions per day: 14.87236385
mean anomaly at epoch: 70.9946°
orbit number at epoch: 87405

The dashed part of the orbit path shows where the satellite is in the earth's shadow,  

DLR